Location: Assche-ter-Heiden
(50.9174°N, 4.1574°E)
Time: 09:41:32
(UTC+00:00)

STARLINK-76 - Pass Details

Date: 20 January 2020
Orbit: 528 x 531 km, 53.0° (Epoch: 19 February)

Event Time Altitude Azimuth Distance (km) Brightness Sun altitude
Exits shadow 06:23:44 - 231° (SW) 2,689 6.8 -11.1°
Rises 06:23:49 0° 231° (SW) 2,657 6.8 -11.1°
Reaches altitude 10° 06:26:03 10° 226° (SW) 1,770 5.9 -10.7°
Maximum altitude 06:29:57 52° 150° (SSE) 666 4.4 -10.2°
Drops below altitude 10° 06:33:52 10° 74° (ENE) 1,778 7.1 -9.6°
Sets 06:36:07 0° 70° (ENE) 2,670 8.0 -9.2°
